User: anonymous   Login
Location: Unspecified
(48.5670°N, 0.0000°E)
Time: 09:32:59
(UTC+00:00)
Language:

PCSat - Orbit

View from above orbital plane
View from above orbital plane
View from above satellite
View from above satellite

Ground track
Ground track

The orbit data is extracted from the following two-line orbital elements,

1 26931U 01043C   20299.90525689 -.00000014 +00000-0 +26443-4 0  9994
2 26931 067.0504 165.7468 0006761 276.0475 083.9856 14.30591805995731
Epoch (UTC): 25 October 2020 21:43:34
Eccentricity: 0.0006761
inclination: 67.0504°
perigee height: 785 km
apogee height: 794 km
right ascension of ascending node: 165.7468°
argument of perigee: 276.0475°
revolutions per day: 14.30591805
mean anomaly at epoch: 83.9856°
orbit number at epoch: 99573

The dashed part of the orbit path shows where the satellite is in the earth's shadow,  

DLR